Stations météo

réclame
Mon MeteoGroup
Leeming, Grande-Bretagne (3257): Température de l'air & dewpoint: 23.03.2020 22:00:00 - 29.03.2020 22:00:00 (BST)Leeming, Grande-Bretagne (3257): Température de l'air -20cm & Température de l'air -100cm: 23.03.2020 22:00:00 - 29.03.2020 22:00:00 (BST)Leeming, Grande-Bretagne (3257): Vitesse du vent & gusts: 23.03.2020 22:00:00 - 29.03.2020 22:00:00 (BST)Leeming, Grande-Bretagne (3257): Direction du vent: 23.03.2020 22:00:00 - 29.03.2020 22:00:00 (BST)Leeming, Grande-Bretagne (3257): reduced air pressure: 23.03.2020 22:00:00 - 29.03.2020 22:00:00 (BST)Leeming, Grande-Bretagne (3257): visibility: 23.03.2020 22:00:00 - 29.03.2020 22:00:00 (BST)Leeming, Grande-Bretagne (3257): Ensoleillement: 23.03.2020 22:00:00 - 29.03.2020 22:00:00 (BST)Leeming, Grande-Bretagne (3257): Quantités de précipitations: 23.03.2020 22:00:00 - 29.03.2020 22:00:00 (BST)
Date & Time tt [°C] td [°C] tt -20cm [°C] tt -100cm [°C] ff [km/h] ff [knt] fx [km/h] fx [knt] dd ppp [hPa] vv [km] sd [min] rr [mm]
29.03.2020 22:00:00 2,9 -1,8 - - 9 5 - - NW 1043,3 23 0 0,0
29.03.2020 21:00:00 2,9 -2,3 - - 11 6 - - NW 1044,0 23 0 0,0
29.03.2020 20:00:00 2,8 -2,6 - - 11 6 - - NNW 1044,2 23 12 0,0
29.03.2020 19:00:00 4,1 -2,3 - - 21 11 - - N 1044,4 24 36 0,0
29.03.2020 18:00:00 4,6 -2,1 - - 24 13 - - N 1044,7 22 0 0,0
29.03.2020 17:00:00 4,7 -0,9 - - 22 12 - - N 1044,9 21 0 0,0
29.03.2020 16:00:00 5,1 0,0 - - 24 13 46 25 NNE 1045,0 18 6 0,0
29.03.2020 15:00:00 6,0 -1,6 - - 29 16 - - N 1045,1 22 0 0,0
29.03.2020 14:00:00 5,3 1,0 - - 22 12 48 26 N 1045,3 19 0 0,0
29.03.2020 13:00:00 6,2 -1,6 - - 28 15 46 25 NNE 1045,1 23 6 0,0
29.03.2020 12:00:00 6,6 -1,1 - - 34 18 50 27 N 1044,9 19 18 0,0
29.03.2020 11:00:00 5,4 -1,9 - - 34 18 48 26 N 1044,7 22 0 0,0
29.03.2020 10:00:00 5,2 -3,8 7,4 7,0 28 15 48 26 N 1044,6 23 0 0,0
29.03.2020 09:00:00 4,1 -2,3 - - 34 18 46 25 N 1044,3 19 0 0,0
29.03.2020 08:00:00 3,2 -1,8 - - 18 10 - - N 1043,5 20 0 0,0
29.03.2020 07:00:00 3,1 -2,1 - - 26 14 - - N 1043,0 10 0 0,0
29.03.2020 06:00:00 3,6 -4,5 - - 28 15 46 25 N 1042,7 23 0 0,0
29.03.2020 05:00:00 2,6 -0,7 - - 18 10 48 26 N 1042,7 20 0 0,2
29.03.2020 04:00:00 2,6 -1,4 - - 26 14 59 32 N 1042,4 21 0 0,0
29.03.2020 03:00:00 3,8 -3,3 - - 28 15 46 25 N 1042,2 23 0 0,0
29.03.2020 02:00:00 3,5 -2,2 - - 34 18 57 31 N 1042,1 11 0 0,0
29.03.2020 01:00:00 3,7 -2,8 - - 28 15 48 26 N 1041,4 10 - 0,0
29.03.2020 00:00:00 3,6 -3,8 - - 34 18 48 26 N 1041,3 22 0 0,0
28.03.2020 23:00:00 2,7 0,0 - - 22 12 59 32 NNE 1041,0 19 0 0,2
28.03.2020 22:00:00 3,7 0,1 - - 21 11 46 25 NNE 1040,3 10 0 0,0
28.03.2020 21:00:00 3,8 -0,9 - - 22 12 46 25 N 1039,6 10 0 0,0
28.03.2020 20:00:00 4,6 -0,9 - - 28 15 52 28 N 1038,8 20 0 0,0
28.03.2020 19:00:00 5,4 0,0 - - 34 18 54 29 N 1038,5 18 6 0,0
28.03.2020 18:00:00 5,7 0,2 - - 22 12 65 35 N 1037,6 10 0 0,0
28.03.2020 17:00:00 6,3 -0,1 - - 31 17 54 29 NNE 1037,2 10 0 0,0
28.03.2020 16:00:00 7,0 1,0 - - 34 18 55 30 NNE 1036,7 22 12 0,0
28.03.2020 15:00:00 8,6 0,7 - - 35 19 54 29 NNE 1036,4 20 18 0,0
28.03.2020 14:00:00 8,2 0,7 - - 34 18 48 26 NNE 1036,3 20 0 0,0
28.03.2020 13:00:00 7,9 1,8 - - 34 18 50 27 NNE 1036,0 10 6 0,0
28.03.2020 12:00:00 7,5 3,6 - - 29 16 - - NNE 1035,6 21 6 0,0
28.03.2020 11:00:00 7,3 3,8 - - 24 13 - - NNE 1035,3 6 0 0,0
28.03.2020 10:00:00 7,3 3,6 7,7 7,0 26 14 - - N 1034,9 19 6 0,0
28.03.2020 09:00:00 6,8 3,9 - - 18 10 - - N 1034,4 19 0 0,0
28.03.2020 08:00:00 6,0 3,6 - - 21 11 - - N 1033,9 17 0 0,0
28.03.2020 07:00:00 5,9 3,6 - - 21 11 - - N 1033,4 20 0 0,0
28.03.2020 06:00:00 5,5 3,4 - - 15 8 - - N 1033,0 19 0 0,0
28.03.2020 05:00:00 6,0 3,0 - - 16 9 - - N 1032,7 20 0 0,0
28.03.2020 04:00:00 6,2 3,2 - - 21 11 - - N 1032,5 19 0 0,0
28.03.2020 03:00:00 6,6 3,2 - - 16 9 - - NNE 1032,6 20 0 0,0
28.03.2020 02:00:00 6,7 4,7 - - 21 11 - - NNE 1032,3 15 0 0,0
28.03.2020 01:00:00 5,5 4,4 - - 11 6 - - N 1032,1 5 - 0,0
28.03.2020 00:00:00 4,7 3,2 - - 16 9 - - N 1031,8 3,9 0 0,0
27.03.2020 23:00:00 4,6 3,0 - - 18 10 - - NNW 1031,5 3,6 0 0,0
27.03.2020 22:00:00 4,7 2,9 - - 18 10 - - N 1031,3 3,8 0 0,0
27.03.2020 21:00:00 4,6 2,8 - - 13 7 - - N 1030,9 4,3 0 0,0
27.03.2020 20:00:00 4,9 1,9 - - 13 7 - - N 1030,3 5 6 0,0
27.03.2020 19:00:00 6,7 1,6 - - 21 11 - - NNE 1029,7 8 60 0,0
27.03.2020 18:00:00 8,0 -0,4 - - 22 12 - - NNE 1029,2 11 60 0,0
27.03.2020 17:00:00 9,3 -0,2 - - 24 13 - - NNE 1028,8 12 60 0,0
27.03.2020 16:00:00 10,0 0,6 - - 22 12 - - N 1028,6 11 60 0,0
27.03.2020 15:00:00 9,8 2,5 - - 22 12 - - N 1028,8 9 60 0,0
27.03.2020 14:00:00 9,5 3,2 - - 21 11 - - NNE 1029,2 8 60 0,0
27.03.2020 13:00:00 9,1 2,9 - - 21 11 - - NNE 1029,5 7 60 0,0
27.03.2020 12:00:00 7,7 3,1 - - 18 10 - - NNE 1029,6 9 60 0,0
27.03.2020 11:00:00 6,4 4,8 - - 13 7 - - NNE 1029,5 5 6 0,0
27.03.2020 10:00:00 4,1 3,6 7,7 6,9 9 5 - - N 1029,3 4,5 42 0,0
27.03.2020 09:00:00 1,9 1,7 - - 8 4 - - N 1028,9 2,1 30 0,0
27.03.2020 08:00:00 0,3 0,0 - - 4 2 - - WNW 1028,5 1,6 0 0,0
27.03.2020 07:00:00 -0,3 -0,6 - - 5 3 - - NW 1028,4 1,1 0 0,0
27.03.2020 06:00:00 0,5 0,2 - - 5 3 - - N 1028,3 0,2 0 0,0
27.03.2020 05:00:00 0,6 0,2 - - 4 2 - - WNW 1028,2 - 0 0,0
27.03.2020 04:00:00 1,4 1,1 - - 9 5 - - NNW 1028,1 - 0 0,0
27.03.2020 03:00:00 1,3 0,7 - - 8 4 - - NNW 1028,1 - 0 0,0
27.03.2020 02:00:00 3,0 2,0 - - 5 3 - - NW 1028,1 1,2 0 0,0
27.03.2020 01:00:00 3,3 2,3 - - 4 2 - - WNW 1028,0 3,0 - 0,0
27.03.2020 00:00:00 2,5 1,3 - - 4 2 - - SW 1028,1 3,1 0 0,0
26.03.2020 23:00:00 1,9 0,3 - - 5 3 - - NW 1027,8 3,7 0 0,0
26.03.2020 22:00:00 3,6 1,3 - - 8 4 - - NNW 1027,3 5 0 0,0
26.03.2020 21:00:00 5,1 0,8 - - 9 5 - - NNW 1026,9 8 0 0,0
26.03.2020 20:00:00 6,8 1,3 - - 13 7 - - NNW 1026,3 9 6 0,0
26.03.2020 19:00:00 9,2 -1,8 - - 8 4 - - N 1025,9 13 60 0,0
26.03.2020 18:00:00 12,0 -2,9 - - 15 8 - - N 1025,4 19 60 0,0
26.03.2020 17:00:00 13,1 1,6 - - 15 8 - - NNE 1025,3 10 60 0,0
26.03.2020 16:00:00 13,3 4,2 - - 16 9 - - NNE 1025,6 7 60 0,0
26.03.2020 15:00:00 14,2 3,4 - - 5 3 - - ENE 1025,7 8 60 0,0
26.03.2020 14:00:00 13,5 1,9 - - 5 3 - - E 1026,1 9 60 0,0
26.03.2020 13:00:00 12,6 2,9 - - 5 3 - - SE 1026,4 18 60 0,0
26.03.2020 12:00:00 11,6 3,9 - - 4 2 - - ENE 1026,2 10 60 0,0
26.03.2020 11:00:00 9,3 3,1 - - 4 2 - - NNW 1026,4 10 48 0,0
26.03.2020 10:00:00 6,5 1,2 7,5 6,9 4 2 - - SSW 1026,5 12 60 0,0
26.03.2020 09:00:00 4,6 1,1 - - 4 2 - - S 1026,4 10 60 0,0
26.03.2020 08:00:00 0,7 -0,6 - - 2 1 - - W 1026,2 10 18 0,0
26.03.2020 07:00:00 0,7 -1,0 - - 4 2 - - WSW 1025,8 5 0 0,0
26.03.2020 06:00:00 1,5 -1,1 - - 4 2 - - SSW 1025,6 6 0 0,0
26.03.2020 05:00:00 2,6 -0,8 - - 4 2 - - SSW 1025,6 7 0 0,0
26.03.2020 04:00:00 2,3 -0,6 - - 5 3 - - SSW 1025,6 6 0 0,0
26.03.2020 03:00:00 2,9 -1,1 - - 5 3 - - SSW 1025,4 8 0 0,0
26.03.2020 02:00:00 4,4 0,3 - - 8 4 - - S 1025,4 8 0 0,0
26.03.2020 01:00:00 5,9 0,9 - - 8 4 - - S 1025,1 8 - 0,0
26.03.2020 00:00:00 5,6 0,9 - - 5 3 - - S 1025,1 8 0 0,0
25.03.2020 23:00:00 7,3 1,0 - - 9 5 - - S 1025,0 9 0 0,0
25.03.2020 22:00:00 7,5 -0,6 - - 5 3 - - S 1024,6 9 0 0,0
25.03.2020 21:00:00 11,4 -1,7 - - 11 6 - - SE 1024,1 16 0 0,0
25.03.2020 20:00:00 12,5 0,7 - - 11 6 - - SE 1023,5 13 0 0,0
25.03.2020 19:00:00 14,5 0,5 - - 9 5 - - SE 1023,2 10 60 0,0
25.03.2020 18:00:00 15,5 2,5 - - 15 8 - - SSE 1023,1 15 60 0,0
25.03.2020 17:00:00 16,2 4,2 - - 15 8 - - SSE 1023,0 10 60 0,0
25.03.2020 16:00:00 16,5 6,7 - - 15 8 - - SSE 1023,2 10 60 0,0
25.03.2020 15:00:00 15,6 5,7 - - 13 7 - - SE 1023,5 10 60 0,0
25.03.2020 14:00:00 14,5 5,6 - - 13 7 - - ESE 1023,8 10 60 0,0
25.03.2020 13:00:00 13,1 5,2 - - 16 9 - - SSE 1023,9 10 60 0,0
25.03.2020 12:00:00 11,8 5,3 - - 15 8 - - SSE 1024,0 22 60 0,0
25.03.2020 11:00:00 9,7 3,8 - - 11 6 - - SE 1024,0 10 24 0,0
25.03.2020 10:00:00 7,4 2,6 7,0 6,7 15 8 - - SE 1024,0 10 60 0,0
25.03.2020 09:00:00 5,5 1,5 - - 15 8 - - SE 1023,9 10 54 0,0
25.03.2020 08:00:00 4,3 1,5 - - 11 6 - - SE 1023,6 9 6 0,0
25.03.2020 07:00:00 4,4 1,7 - - 9 5 - - SE 1023,2 9 0 0,0
25.03.2020 06:00:00 5,5 2,5 - - 16 9 - - SE 1022,6 10 0 0,0
25.03.2020 05:00:00 6,2 3,0 - - 16 9 - - ESE 1022,5 10 0 0,0
25.03.2020 04:00:00 8,6 5,0 - - 18 10 - - SE 1022,0 8 0 0,0
25.03.2020 03:00:00 9,1 5,8 - - 13 7 - - SSE 1022,1 8 0 0,0
25.03.2020 02:00:00 8,9 5,7 - - 16 9 - - SSE 1021,7 7 0 0,0
25.03.2020 01:00:00 9,7 5,8 - - 18 10 - - SSE 1021,5 8 - 0,0
25.03.2020 00:00:00 10,6 6,2 - - 21 11 - - SE 1021,3 8 0 0,0
24.03.2020 23:00:00 11,8 6,3 - - 24 13 - - SE 1020,9 9 0 0,0
24.03.2020 22:00:00 11,7 6,6 - - 15 8 - - SSE 1020,8 9 0 0,0
24.03.2020 21:00:00 11,9 6,8 - - 16 9 - - SE 1020,7 9 0 0,0
24.03.2020 20:00:00 13,3 7,0 - - 13 7 - - SE 1020,3 10 0 0,0
24.03.2020 19:00:00 13,8 7,3 - - 16 9 - - SE 1019,9 10 0 0,0
24.03.2020 18:00:00 15,4 7,5 - - 15 8 - - SSE 1019,8 18 0 0,0
24.03.2020 17:00:00 16,3 6,8 - - 16 9 - - S 1019,5 10 0 0,0
24.03.2020 16:00:00 15,6 6,9 - - 26 14 - - SSE 1020,2 15 12 0,0
24.03.2020 15:00:00 15,4 5,9 - - 28 15 - - SSE 1020,7 15 60 0,0
24.03.2020 14:00:00 12,3 3,8 - - 22 12 - - SE 1021,3 18 12 0,0
24.03.2020 13:00:00 10,6 2,7 - - 28 15 - - SSE 1022,0 25 54 0,0
24.03.2020 12:00:00 8,5 1,9 - - 47 25 - - SSE 1022,4 10 54 0,0
24.03.2020 11:00:00 6,4 0,9 - - 29 16 - - SSE 1022,6 20 24 0,0
24.03.2020 10:00:00 4,1 -0,1 6,5 6,7 50 27 - - SSE 1023,0 10 60 0,0
24.03.2020 09:00:00 2,0 -0,4 - - 21 11 - - SSE 1022,9 8 6 0,0
24.03.2020 08:00:00 1,2 -1,2 - - 21 11 - - SSE 1023,3 9 0 0,0
24.03.2020 07:00:00 1,1 -1,3 - - 15 8 - - SSE 1023,2 9 0 0,0
24.03.2020 06:00:00 1,6 -1,0 - - 15 8 - - SE 1023,2 10 0 0,0
24.03.2020 05:00:00 1,9 -0,7 - - 15 8 - - SE 1023,4 9 0 0,0
24.03.2020 04:00:00 2,0 -0,7 - - 15 8 - - SSE 1023,5 10 0 0,0
24.03.2020 03:00:00 2,4 -0,6 - - 18 10 - - SSE 1024,0 11 0 0,0
24.03.2020 02:00:00 3,3 -0,4 - - 21 11 - - SE 1024,6 13 0 0,0
24.03.2020 01:00:00 4,3 -0,3 - - 21 11 - - SE 1024,9 14 - 0,0
24.03.2020 00:00:00 4,8 0,5 - - 32 17 - - SE 1025,2 10 0 0,0
23.03.2020 23:00:00 5,7 1,5 - - 9 5 - - SE 1025,0 13 0 0,0
23.03.2020 22:00:00 - - - - - - - - - - - - -

tt = Température de l'air
td = dewpoint
tt -20cm = Température de l'air -20cm
tt -100cm = Température de l'air -100cm
ff = Vitesse du vent
fx = gusts
dd = Direction du vent
ppp = reduced air pressure
vv = visibility
sd = Ensoleillement
rr = Quantités de précipitations

stations d'obs. à proximité